Location: Newark
(25.4800°N, 85.7200°E)
Time: 20:35:24
(UTC+00:00)

Transit 4A - Pass Details

Date: 01 September 2019
Orbit: 865 x 979 km, 66.8° (Epoch: 22 September)

Event Time Altitude Azimuth Distance (km) Brightness Sun altitude
Rises 10:37:00 0° 237° (WSW) 3,654 11.9 26.1°
Reaches altitude 10° 10:40:10 10° 252° (WSW) 2,718 12.0 25.4°
Maximum altitude 10:44:59 22° 302° (WNW) 1,979 10.8 24.3°
Drops below altitude 10° 10:49:50 10° 351° (N) 2,725 10.5 23.2°
Sets 10:53:02 0° 6° (N) 3,668 10.9 22.5°
